When you browse on this site, cookies collect data to enhance your experience and personalize the content and advertising you see.
Visit our Privacy Policy to learn more. By continuing to use the site, you agree to this use of cookies and data.
  • In Portugal
  • List of Countries
  • For 7 days
  • Water Temperature
  • Satellite Maps
  • Weather Map
  • Weather Widgets
  • user-avatar
    Login

    Hourly Weather Salzburg

    Today, 22 July, Monday

    Time Temperature Precipitation Wind Pressure Humidity
    00:00 +10°C° 0 mm 1 mps 633 mmHg 92%
    01:00 +10°C° 0 mm 1 mps 633 mmHg 92%
    02:00 +10°C° 0 mm 1 mps 633 mmHg 91%
    03:00 +10°C° 0 mm 1 mps 632 mmHg 91%
    04:00 +9°C° 0 mm 1 mps 632 mmHg 91%
    05:00 +11°C° 0 mm 1 mps 633 mmHg 89%
    06:00 +12°C° 0 mm 1 mps 634 mmHg 87%
    07:00 +13°C° 0 mm 0 mps 634 mmHg 85%
    08:00 +16°C° 0 mm 1 mps 635 mmHg 75%
    09:00 +19°C° 0 mm 1 mps 636 mmHg 64%
    10:00 +21°C° 0 mm 1 mps 636 mmHg 54%
    11:00 +22°C° 0 mm 1 mps 636 mmHg 50%
    12:00 +22°C° 0 mm 1 mps 637 mmHg 46%
    13:00 +23°C° 0 mm 2 mps 637 mmHg 42%
    14:00 +23°C° 0 mm 2 mps 636 mmHg 46%
    15:00 +21°C° 0 mm 2 mps 636 mmHg 51%
    16:00 +21°C° 0 mm 2 mps 636 mmHg 55%
    17:00 +19°C° 0.1 mm 2 mps 635 mmHg 66%
    18:00 +19°C° 0.1 mm 1 mps 634 mmHg 77%
    19:00 +16°C° 0.1 mm 1 mps 634 mmHg 89%
    20:00 +15°C° 0 mm 1 mps 634 mmHg 90%
    21:00 +13°C° 0 mm 1 mps 634 mmHg 92%
    22:00 +11°C° 0 mm 0 mps 633 mmHg 94%
    23:00 +12°C° 0 mm 1 mps 633 mmHg 94%

    Tomorrow, 23 July, Tuesday

    Time Temperature Precipitation Wind Pressure Humidity
    00:00 +12°C° 0 mm 1 mps 633 mmHg 94%
    01:00 +12°C° 0 mm 1 mps 633 mmHg 94%
    02:00 +11°C° 0 mm 1 mps 633 mmHg 94%
    03:00 +11°C° 0 mm 1 mps 632 mmHg 94%
    04:00 +11°C° 0 mm 1 mps 632 mmHg 94%
    05:00 +11°C° 0 mm 0 mps 633 mmHg 91%
    06:00 +13°C° 0 mm 0 mps 633 mmHg 88%
    07:00 +14°C° 0 mm 0 mps 633 mmHg 84%
    08:00 +17°C° 0 mm 0 mps 634 mmHg 72%
    09:00 +19°C° 0 mm 0 mps 635 mmHg 60%
    10:00 +24°C° 0 mm 1 mps 636 mmHg 48%
    11:00 +24°C° 0 mm 1 mps 636 mmHg 46%
    12:00 +25°C° 0 mm 1 mps 636 mmHg 44%
    13:00 +25°C° 0 mm 1 mps 636 mmHg 41%
    14:00 +25°C° 0 mm 2 mps 635 mmHg 44%
    15:00 +25°C° 0 mm 2 mps 635 mmHg 47%
    16:00 +24°C° 0 mm 2 mps 634 mmHg 49%
    17:00 +23°C° 0 mm 2 mps 634 mmHg 60%
    18:00 +21°C° 0 mm 1 mps 633 mmHg 71%
    19:00 +19°C° 0 mm 1 mps 632 mmHg 82%
    20:00 +18°C° 0 mm 1 mps 632 mmHg 85%
    21:00 +15°C° 0 mm 1 mps 632 mmHg 89%
    22:00 +14°C° 0 mm 1 mps 632 mmHg 92%
    23:00 +14°C° 0 mm 1 mps 631 mmHg 92%

    Day after tomorrow, 24 July, Wednesday

    Time Temperature Precipitation Wind Pressure Humidity
    00:00 +13°C° 0 mm 1 mps 631 mmHg 91%
    01:00 +13°C° 0 mm 1 mps 631 mmHg 91%
    02:00 +13°C° 0 mm 1 mps 631 mmHg 91%
    03:00 +13°C° 0 mm 1 mps 630 mmHg 91%
    04:00 +12°C° 0 mm 1 mps 630 mmHg 91%
    05:00 +14°C° 0 mm 1 mps 631 mmHg 86%
    06:00 +15°C° 0 mm 0 mps 631 mmHg 81%
    07:00 +16°C° 0 mm 0 mps 632 mmHg 77%
    08:00 +19°C° 0 mm 0 mps 633 mmHg 67%
    09:00 +23°C° 0 mm 1 mps 633 mmHg 57%
    10:00 +25°C° 0 mm 1 mps 634 mmHg 47%
    11:00 +26°C° 0 mm 1 mps 634 mmHg 43%
    12:00 +27°C° 0 mm 1 mps 634 mmHg 40%
    13:00 +27°C° 0 mm 2 mps 634 mmHg 36%
    14:00 +27°C° 0 mm 2 mps 634 mmHg 39%
    15:00 +26°C° 0 mm 2 mps 634 mmHg 43%
    16:00 +26°C° 0 mm 2 mps 633 mmHg 46%
    17:00 +24°C° 0 mm 2 mps 633 mmHg 58%
    18:00 +22°C° 0 mm 1 mps 632 mmHg 70%
    19:00 +20°C° 0 mm 1 mps 631 mmHg 83%
    20:00 +18°C° 0 mm 1 mps 631 mmHg 84%
    21:00 +16°C° 0 mm 1 mps 631 mmHg 86%
    22:00 +15°C° 0 mm 1 mps 631 mmHg 88%
    23:00 +15°C° 0 mm 1 mps 631 mmHg 88%

    25 July, Thursday

    Time Temperature Precipitation Wind Pressure Humidity
    00:00 +14°C° 0 mm 1 mps 631 mmHg 88%
    01:00 +14°C° 0 mm 1 mps 631 mmHg 88%
    02:00 +14°C° 0 mm 1 mps 630 mmHg 88%
    03:00 +14°C° 0 mm 1 mps 630 mmHg 87%
    04:00 +13°C° 0 mm 1 mps 630 mmHg 87%
    05:00 +15°C° 0 mm 1 mps 631 mmHg 83%
    06:00 +15°C° 0 mm 0 mps 631 mmHg 80%
    07:00 +17°C° 0 mm 0 mps 632 mmHg 76%
    08:00 +19°C° 0 mm 0 mps 633 mmHg 67%
    09:00 +24°C° 0 mm 1 mps 634 mmHg 57%
    10:00 +26°C° 0 mm 1 mps 634 mmHg 48%
    11:00 +26°C° 0.1 mm 1 mps 634 mmHg 46%
    12:00 +27°C° 0.1 mm 1 mps 634 mmHg 44%
    13:00 +28°C° 0.1 mm 1 mps 634 mmHg 42%
    14:00 +27°C° 0.1 mm 2 mps 634 mmHg 45%
    15:00 +26°C° 0.1 mm 2 mps 633 mmHg 49%
    16:00 +26°C° 0.1 mm 2 mps 633 mmHg 52%
    17:00 +24°C° 0.2 mm 1 mps 632 mmHg 64%
    18:00 +22°C° 0.2 mm 1 mps 632 mmHg 75%
    19:00 +20°C° 0.2 mm 1 mps 631 mmHg 86%
    20:00 +19°C° 0 mm 1 mps 631 mmHg 87%
    21:00 +18°C° 0 mm 1 mps 630 mmHg 88%
    22:00 +15°C° 0 mm 1 mps 630 mmHg 90%
    23:00 +15°C° 0 mm 1 mps 630 mmHg 90%

    26 July, Friday

    Time Temperature Precipitation Wind Pressure Humidity
    00:00 +15°C° 0 mm 1 mps 630 mmHg 90%
    01:00 +14°C° 0 mm 1 mps 630 mmHg 90%
    02:00 +14°C° 0 mm 1 mps 629 mmHg 90%
    03:00 +14°C° 0 mm 1 mps 629 mmHg 89%
    04:00 +14°C° 0 mm 1 mps 629 mmHg 88%
    05:00 +15°C° 0 mm 1 mps 629 mmHg 85%
    06:00 +15°C° 0 mm 0 mps 629 mmHg 82%
    07:00 +17°C° 0 mm 0 mps 630 mmHg 80%
    08:00 +19°C° 0 mm 0 mps 631 mmHg 73%
    09:00 +23°C° 0 mm 1 mps 631 mmHg 66%
    10:00 +25°C° 0 mm 1 mps 632 mmHg 59%
    11:00 +25°C° 0.2 mm 1 mps 632 mmHg 56%
    12:00 +26°C° 0.2 mm 2 mps 631 mmHg 53%
    13:00 +26°C° 0.2 mm 2 mps 631 mmHg 50%
    14:00 +26°C° 0.3 mm 2 mps 631 mmHg 53%
    15:00 +25°C° 0.3 mm 2 mps 631 mmHg 55%
    16:00 +25°C° 0.3 mm 2 mps 630 mmHg 58%
    17:00 +23°C° 0.6 mm 1 mps 630 mmHg 68%
    18:00 +21°C° 0.6 mm 1 mps 629 mmHg 79%
    19:00 +17°C° 0.6 mm 0 mps 628 mmHg 90%
    20:00 +18°C° 0.5 mm 1 mps 628 mmHg 91%
    21:00 +16°C° 0.5 mm 1 mps 628 mmHg 91%
    22:00 +15°C° 0.5 mm 1 mps 628 mmHg 92%
    23:00 +15°C° 0.1 mm 1 mps 628 mmHg 92%

    27 July, Saturday

    Time Temperature Precipitation Wind Pressure Humidity
    00:00 +13°C° 0.1 mm 0 mps 628 mmHg 91%
    01:00 +13°C° 0.1 mm 0 mps 627 mmHg 91%
    02:00 +13°C° 0.1 mm 0 mps 627 mmHg 92%
    03:00 +12°C° 0.1 mm 0 mps 627 mmHg 93%
    04:00 +12°C° 0.1 mm 0 mps 626 mmHg 94%
    05:00 +13°C° 0 mm 0 mps 627 mmHg 93%
    06:00 +14°C° 0 mm 0 mps 627 mmHg 91%
    07:00 +15°C° 0 mm 0 mps 628 mmHg 90%
    08:00 +16°C° 1 mm 0 mps 628 mmHg 88%
    09:00 +19°C° 1 mm 1 mps 628 mmHg 86%
    10:00 +20°C° 1 mm 1 mps 629 mmHg 84%
    11:00 +20°C° 1.6 mm 1 mps 629 mmHg 83%
    12:00 +20°C° 1.6 mm 1 mps 628 mmHg 83%
    13:00 +20°C° 1.6 mm 1 mps 628 mmHg 82%
    14:00 +21°C° 1.1 mm 1 mps 628 mmHg 80%
    15:00 +21°C° 1.1 mm 1 mps 628 mmHg 79%
    16:00 +19°C° 1.1 mm 0 mps 628 mmHg 77%
    17:00 +18°C° 0.5 mm 0 mps 628 mmHg 81%
    18:00 +16°C° 0.5 mm 0 mps 628 mmHg 85%
    19:00 +15°C° 0.5 mm 0 mps 627 mmHg 89%
    20:00 +14°C° 0 mm 0 mps 627 mmHg 89%
    21:00 +14°C° 0 mm 1 mps 627 mmHg 89%
    22:00 +13°C° 0 mm 1 mps 627 mmHg 90%
    23:00 +13°C° 0 mm 1 mps 627 mmHg 90%
    Show more